iso_date,epoch_date,Year,Hour,Min,DOY,POS_DOY,Lat,Lon,BP,Ts,Ta,has_bp,has_ts,has_ta,BuoyID,Buoy_Type,Buoy_Owner,Logistics,Hemisphere
2011-07-17T02:45:36Z,1310870736,2011,2,45,198.115,198.115,71.81694,-156.87162,1007.9,-999.00,-999.0,yes,no,no,300034012488880,UPTEMPO,PSC-UPTEMPO,Healy,North
2011-07-17T04:00:28Z,1310875229,2011,4,0,198.167,198.167,71.81694,-156.87162,1008.1,-999.00,-999.0,yes,no,no,300034012488880,UPTEMPO,PSC-UPTEMPO,Healy,North
2011-07-17T04:59:31Z,1310878771,2011,5,0,198.208,198.208,71.81694,-156.87162,1008.2,-999.00,-999.0,yes,no,no,300034012488880,UPTEMPO,PSC-UPTEMPO,Healy,North
2011-07-17T06:00:00Z,1310882400,2011,6,0,198.25,198.25,72.1071,-155.52072,1008.7,-999.00,-999.0,yes,no,no,300034012488880,UPTEMPO,PSC-UPTEMPO,Healy,North
2011-07-17T07:00:28Z,1310886029,2011,7,0,198.292,198.292,72.1071,-155.52072,1009.1,-999.00,-999.0,yes,no,no,300034012488880,UPTEMPO,PSC-UPTEMPO,Healy,North
2011-07-17T07:59:31Z,1310889571,2011,8,0,198.333,198.333,72.1071,-155.52072,1009.4,-999.00,-999.0,yes,no,no,300034012488880,UPTEMPO,PSC-UPTEMPO,Healy,North
2011-07-17T09:00:00Z,1310893200,2011,9,0,198.375,198.375,72.31698,-154.4841,1009.6,-999.00,-999.0,yes,no,no,300034012488880,UPTEMPO,PSC-UPTEMPO,Healy,North
2011-07-17T10:00:28Z,1310896829,2011,10,0,198.417,198.417,72.31698,-154.4841,1009.7,-999.00,-999.0,yes,no,no,300034012488880,UPTEMPO,PSC-UPTEMPO,Healy,North
2011-07-17T10:59:31Z,1310900371,2011,11,0,198.458,198.458,72.31698,-154.4841,1009.8,-999.00,-999.0,yes,no,no,300034012488880,UPTEMPO,PSC-UPTEMPO,Healy,North
2011-07-17T12:00:00Z,1310904000,2011,12,0,198.5,198.5,72.49338,-153.81108,1009.9,-999.00,-999.0,yes,no,no,300034012488880,UPTEMPO,PSC-UPTEMPO,Healy,North
2011-07-17T13:00:28Z,1310907629,2011,13,0,198.542,198.542,72.49338,-153.81108,1009.8,-999.00,-999.0,yes,no,no,300034012488880,UPTEMPO,PSC-UPTEMPO,Healy,North
2011-07-17T13:59:31Z,1310911171,2011,14,0,198.583,198.583,72.49338,-153.81108,1009.8,-999.00,-999.0,yes,no,no,300034012488880,UPTEMPO,PSC-UPTEMPO,Healy,North
2011-07-17T15:00:00Z,1310914800,2011,15,0,198.625,198.625,72.51336,-153.66996,1009.8,-999.00,-999.0,yes,no,no,300034012488880,UPTEMPO,PSC-UPTEMPO,Healy,North
2011-07-17T16:00:28Z,1310918429,2011,16,0,198.667,198.667,72.51336,-153.66996,1010.0,-999.00,-999.0,yes,no,no,300034012488880,UPTEMPO,PSC-UPTEMPO,Healy,North
2011-07-17T16:59:31Z,1310921971,2011,17,0,198.708,198.708,72.51336,-153.66996,1010.0,-999.00,-999.0,yes,no,no,300034012488880,UPTEMPO,PSC-UPTEMPO,Healy,North
2011-07-17T18:00:00Z,1310925600,2011,18,0,198.75,198.75,72.52038,-153.74232,1010.0,-999.00,-999.0,yes,no,no,300034012488880,UPTEMPO,PSC-UPTEMPO,Healy,North
2011-07-17T19:00:28Z,1310929229,2011,19,0,198.792,198.792,72.52038,-153.74232,1010.0,-999.00,-999.0,yes,no,no,300034012488880,UPTEMPO,PSC-UPTEMPO,Healy,North
2011-07-17T19:59:31Z,1310932771,2011,20,0,198.833,198.833,72.52038,-153.74232,1010.3,-999.00,-999.0,yes,no,no,300034012488880,UPTEMPO,PSC-UPTEMPO,Healy,North
2011-07-17T21:00:00Z,1310936400,2011,21,0,198.875,198.875,72.52506,-153.819,1010.0,-999.00,-999.0,yes,no,no,300034012488880,UPTEMPO,PSC-UPTEMPO,Healy,North
2011-07-17T22:00:28Z,1310940029,2011,22,0,198.917,198.917,72.52506,-153.819,1009.9,-999.00,-999.0,yes,no,no,300034012488880,UPTEMPO,PSC-UPTEMPO,Healy,North
2011-07-17T22:59:31Z,1310943571,2011,23,0,198.958,198.958,72.52506,-153.819,1009.7,-999.00,-999.0,yes,no,no,300034012488880,UPTEMPO,PSC-UPTEMPO,Healy,North
2011-07-18T00:00:00Z,1310947200,2011,0,0,199.0,199.0,72.53064,-153.8874,1009.5,-999.00,-999.0,yes,no,no,300034012488880,UPTEMPO,PSC-UPTEMPO,Healy,North
2011-07-18T01:00:28Z,1310950829,2011,1,0,199.042,199.042,72.53064,-153.8874,1009.3,-999.00,-999.0,yes,no,no,300034012488880,UPTEMPO,PSC-UPTEMPO,Healy,North
2011-07-18T01:59:31Z,1310954371,2011,2,0,199.083,199.083,72.53064,-153.8874,1008.9,-999.00,-999.0,yes,no,no,300034012488880,UPTEMPO,PSC-UPTEMPO,Healy,North
2011-07-18T03:00:00Z,1310958000,2011,3,0,199.125,199.125,72.53946,-153.84942,1008.6,-999.00,-999.0,yes,no,no,300034012488880,UPTEMPO,PSC-UPTEMPO,Healy,North
2011-07-18T04:00:28Z,1310961629,2011,4,0,199.167,199.167,72.53946,-153.84942,1008.3,-999.00,-999.0,yes,no,no,300034012488880,UPTEMPO,PSC-UPTEMPO,Healy,North
2011-07-18T04:59:31Z,1310965171,2011,5,0,199.208,199.208,72.53946,-153.84942,1008.2,-999.00,-999.0,yes,no,no,300034012488880,UPTEMPO,PSC-UPTEMPO,Healy,North
2011-07-18T06:00:00Z,1310968800,2011,6,0,199.25,199.25,72.54288,-153.89604,1008.0,-999.00,-999.0,yes,no,no,300034012488880,UPTEMPO,PSC-UPTEMPO,Healy,North
2011-07-18T07:00:28Z,1310972429,2011,7,0,199.292,199.292,72.54288,-153.89604,1007.9,-999.00,-999.0,yes,no,no,300034012488880,UPTEMPO,PSC-UPTEMPO,Healy,North
2011-07-18T07:59:31Z,1310975971,2011,8,0,199.333,199.333,72.54288,-153.89604,1007.5,-999.00,-999.0,yes,no,no,300034012488880,UPTEMPO,PSC-UPTEMPO,Healy,North
2011-07-18T09:00:00Z,1310979600,2011,9,0,199.375,199.375,72.54846,-153.6615,1007.4,-999.00,-999.0,yes,no,no,300034012488880,UPTEMPO,PSC-UPTEMPO,Healy,North
2011-07-18T10:00:28Z,1310983229,2011,10,0,199.417,199.417,72.54846,-153.6615,1007.1,-999.00,-999.0,yes,no,no,300034012488880,UPTEMPO,PSC-UPTEMPO,Healy,North
2011-07-18T10:59:31Z,1310986771,2011,11,0,199.458,199.458,72.54846,-153.6615,1007.0,-999.00,-999.0,yes,no,no,300034012488880,UPTEMPO,PSC-UPTEMPO,Healy,North
2011-07-18T12:00:00Z,1310990400,2011,12,0,199.5,199.5,72.67914,-152.9289,1006.6,-999.00,-999.0,yes,no,no,300034012488880,UPTEMPO,PSC-UPTEMPO,Healy,North
2011-07-18T13:00:28Z,1310994029,2011,13,0,199.542,199.542,72.67914,-152.9289,1006.1,-999.00,-999.0,yes,no,no,300034012488880,UPTEMPO,PSC-UPTEMPO,Healy,North
2011-07-18T13:59:31Z,1310997571,2011,14,0,199.583,199.583,72.67914,-152.9289,1005.9,-999.00,-999.0,yes,no,no,300034012488880,UPTEMPO,PSC-UPTEMPO,Healy,North
2011-07-18T15:00:00Z,1311001200,2011,15,0,199.625,199.625,72.84834,-151.84908,1005.6,-999.00,-999.0,yes,no,no,300034012488880,UPTEMPO,PSC-UPTEMPO,Healy,North
2011-07-18T16:00:28Z,1311004829,2011,16,0,199.667,199.667,72.84834,-151.84908,1005.4,-999.00,-999.0,yes,no,no,300034012488880,UPTEMPO,PSC-UPTEMPO,Healy,North
2011-07-18T16:59:31Z,1311008371,2011,17,0,199.708,199.708,72.84834,-151.84908,1005.3,-999.00,-999.0,yes,no,no,300034012488880,UPTEMPO,PSC-UPTEMPO,Healy,North
2011-07-18T18:00:00Z,1311012000,2011,18,0,199.75,199.75,72.84294,-151.88022,1005.2,-999.00,-999.0,yes,no,no,300034012488880,UPTEMPO,PSC-UPTEMPO,Healy,North
2011-07-18T19:00:28Z,1311015629,2011,19,0,199.792,199.792,72.84294,-151.88022,1004.6,-999.00,-999.0,yes,no,no,300034012488880,UPTEMPO,PSC-UPTEMPO,Healy,North
2011-07-18T19:59:31Z,1311019171,2011,20,0,199.833,199.833,72.84294,-151.88022,1004.5,-999.00,-999.0,yes,no,no,300034012488880,UPTEMPO,PSC-UPTEMPO,Healy,North
2011-07-18T21:00:00Z,1311022800,2011,21,0,199.875,199.875,72.84744,-151.9155,1005.6,-999.00,-999.0,yes,no,no,300034012488880,UPTEMPO,PSC-UPTEMPO,Healy,North
2011-07-18T22:00:28Z,1311026429,2011,22,0,199.917,199.917,72.84744,-151.9155,1005.4,-999.00,-999.0,yes,no,no,300034012488880,UPTEMPO,PSC-UPTEMPO,Healy,North
2011-07-18T22:59:31Z,1311029971,2011,23,0,199.958,199.958,72.84744,-151.9155,1005.5,-999.00,-999.0,yes,no,no,300034012488880,UPTEMPO,PSC-UPTEMPO,Healy,North
2011-07-19T00:00:00Z,1311033600,2011,0,0,200.0,200.0,72.8487,-151.90002,1005.6,-999.00,-999.0,yes,no,no,300034012488880,UPTEMPO,PSC-UPTEMPO,Healy,North
2011-07-19T01:00:28Z,1311037229,2011,1,0,200.042,200.042,72.8487,-151.90002,1005.7,-999.00,-999.0,yes,no,no,300034012488880,UPTEMPO,PSC-UPTEMPO,Healy,North
2011-07-19T01:59:31Z,1311040771,2011,2,0,200.083,200.083,72.8487,-151.90002,1005.8,-999.00,-999.0,yes,no,no,300034012488880,UPTEMPO,PSC-UPTEMPO,Healy,North
2011-07-19T03:00:00Z,1311044400,2011,3,0,200.125,200.125,72.83556,-151.8903,1005.9,-999.00,-999.0,yes,no,no,300034012488880,UPTEMPO,PSC-UPTEMPO,Healy,North
2011-07-19T04:00:28Z,1311048029,2011,4,0,200.167,200.167,72.83556,-151.8903,1006.0,-999.00,-999.0,yes,no,no,300034012488880,UPTEMPO,PSC-UPTEMPO,Healy,North
2011-07-19T04:59:31Z,1311051571,2011,5,0,200.208,200.208,72.83556,-151.8903,1006.2,-999.00,-999.0,yes,no,no,300034012488880,UPTEMPO,PSC-UPTEMPO,Healy,North
2011-07-19T06:00:00Z,1311055200,2011,6,0,200.25,200.25,72.82746,-151.911,1006.2,-999.00,-999.0,yes,no,no,300034012488880,UPTEMPO,PSC-UPTEMPO,Healy,North
2011-07-19T07:00:28Z,1311058829,2011,7,0,200.292,200.292,72.82746,-151.911,1006.5,-999.00,-999.0,yes,no,no,300034012488880,UPTEMPO,PSC-UPTEMPO,Healy,North
2011-07-19T07:59:31Z,1311062371,2011,8,0,200.333,200.333,72.82746,-151.911,1006.7,-999.00,-999.0,yes,no,no,300034012488880,UPTEMPO,PSC-UPTEMPO,Healy,North
2011-07-19T09:00:00Z,1311066000,2011,9,0,200.375,200.375,72.82836,-151.91118,1007.0,-999.00,-999.0,yes,no,no,300034012488880,UPTEMPO,PSC-UPTEMPO,Healy,North
2011-07-19T10:00:28Z,1311069629,2011,10,0,200.417,200.417,72.82836,-151.91118,1007.4,-999.00,-999.0,yes,no,no,300034012488880,UPTEMPO,PSC-UPTEMPO,Healy,North
2011-07-19T10:59:31Z,1311073171,2011,11,0,200.458,200.458,72.82836,-151.91118,1007.5,-999.00,-999.0,yes,no,no,300034012488880,UPTEMPO,PSC-UPTEMPO,Healy,North
2011-07-19T12:00:00Z,1311076800,2011,12,0,200.5,200.5,72.82548,-151.89084,1007.7,-999.00,-999.0,yes,no,no,300034012488880,UPTEMPO,PSC-UPTEMPO,Healy,North
2011-07-19T13:00:28Z,1311080429,2011,13,0,200.542,200.542,72.82548,-151.89084,1007.8,-999.00,-999.0,yes,no,no,300034012488880,UPTEMPO,PSC-UPTEMPO,Healy,North
2011-07-19T13:59:31Z,1311083971,2011,14,0,200.583,200.583,72.82548,-151.89084,1008.1,-999.00,-999.0,yes,no,no,300034012488880,UPTEMPO,PSC-UPTEMPO,Healy,North
2011-07-19T15:00:00Z,1311087600,2011,15,0,200.625,200.625,72.81576,-151.87788,1008.5,-999.00,-999.0,yes,no,no,300034012488880,UPTEMPO,PSC-UPTEMPO,Healy,North
2011-07-19T16:00:28Z,1311091229,2011,16,0,200.667,200.667,72.81576,-151.87788,1008.6,-999.00,-999.0,yes,no,no,300034012488880,UPTEMPO,PSC-UPTEMPO,Healy,North
2011-07-19T16:59:31Z,1311094771,2011,17,0,200.708,200.708,72.81576,-151.87788,1008.8,-999.00,-999.0,yes,no,no,300034012488880,UPTEMPO,PSC-UPTEMPO,Healy,North
2011-07-19T18:00:00Z,1311098400,2011,18,0,200.75,200.75,72.81,-151.89066,1009.0,-999.00,-999.0,yes,no,no,300034012488880,UPTEMPO,PSC-UPTEMPO,Healy,North
2011-07-19T19:00:28Z,1311102029,2011,19,0,200.792,200.792,72.81,-151.89066,1009.3,-999.00,-999.0,yes,no,no,300034012488880,UPTEMPO,PSC-UPTEMPO,Healy,North
2011-07-19T19:59:31Z,1311105571,2011,20,0,200.833,200.833,72.81,-151.89066,1009.7,-999.00,-999.0,yes,no,no,300034012488880,UPTEMPO,PSC-UPTEMPO,Healy,North
2011-07-19T21:00:00Z,1311109200,2011,21,0,200.875,200.875,72.81252,-151.89138,1009.8,-999.00,-999.0,yes,no,no,300034012488880,UPTEMPO,PSC-UPTEMPO,Healy,North
2011-07-19T22:00:28Z,1311112829,2011,22,0,200.917,200.917,72.81252,-151.89138,1010.0,-999.00,-999.0,yes,no,no,300034012488880,UPTEMPO,PSC-UPTEMPO,Healy,North
2011-07-19T22:59:31Z,1311116371,2011,23,0,200.958,200.958,72.81252,-151.89138,1010.1,-999.00,-999.0,yes,no,no,300034012488880,UPTEMPO,PSC-UPTEMPO,Healy,North
2011-07-20T00:00:00Z,1311120000,2011,0,0,201.0,201.0,72.81072,-151.8759,1010.2,-999.00,-999.0,yes,no,no,300034012488880,UPTEMPO,PSC-UPTEMPO,Healy,North
2011-07-20T01:00:28Z,1311123629,2011,1,0,201.042,201.042,72.81072,-151.8759,1010.2,-999.00,-999.0,yes,no,no,300034012488880,UPTEMPO,PSC-UPTEMPO,Healy,North
2011-07-20T01:59:31Z,1311127171,2011,2,0,201.083,201.083,72.81072,-151.8759,1010.4,-999.00,-999.0,yes,no,no,300034012488880,UPTEMPO,PSC-UPTEMPO,Healy,North
2011-07-20T03:00:00Z,1311130800,2011,3,0,201.125,201.125,72.80424,-151.87572,1010.3,-999.00,-999.0,yes,no,no,300034012488880,UPTEMPO,PSC-UPTEMPO,Healy,North
2011-07-20T04:00:28Z,1311134429,2011,4,0,201.167,201.167,72.80424,-151.87572,1010.2,-999.00,-999.0,yes,no,no,300034012488880,UPTEMPO,PSC-UPTEMPO,Healy,North
2011-07-20T04:59:31Z,1311137971,2011,5,0,201.208,201.208,72.80424,-151.87572,1010.1,-999.00,-999.0,yes,no,no,300034012488880,UPTEMPO,PSC-UPTEMPO,Healy,North
2011-07-20T06:00:00Z,1311141600,2011,6,0,201.25,201.25,72.80244,-151.89804,1010.4,-999.00,-999.0,yes,no,no,300034012488880,UPTEMPO,PSC-UPTEMPO,Healy,North
2011-07-20T07:00:28Z,1311145229,2011,7,0,201.292,201.292,72.80244,-151.89804,1010.4,-999.00,-999.0,yes,no,no,300034012488880,UPTEMPO,PSC-UPTEMPO,Healy,North
2011-07-20T07:59:31Z,1311148771,2011,8,0,201.333,201.333,72.80244,-151.89804,1010.6,-999.00,-999.0,yes,no,no,300034012488880,UPTEMPO,PSC-UPTEMPO,Healy,North
2011-07-20T09:00:00Z,1311152400,2011,9,0,201.375,201.375,72.8073,-151.91568,1010.3,-999.00,-999.0,yes,no,no,300034012488880,UPTEMPO,PSC-UPTEMPO,Healy,North
2011-07-20T10:00:28Z,1311156029,2011,10,0,201.417,201.417,72.8073,-151.91568,1010.2,-999.00,-999.0,yes,no,no,300034012488880,UPTEMPO,PSC-UPTEMPO,Healy,North
2011-07-20T10:59:31Z,1311159571,2011,11,0,201.458,201.458,72.8073,-151.91568,1010.3,-999.00,-999.0,yes,no,no,300034012488880,UPTEMPO,PSC-UPTEMPO,Healy,North
2011-07-20T12:00:00Z,1311163200,2011,12,0,201.5,201.5,72.81198,-151.92,1010.0,-999.00,-999.0,yes,no,no,300034012488880,UPTEMPO,PSC-UPTEMPO,Healy,North
2011-07-20T13:00:28Z,1311166829,2011,13,0,201.542,201.542,72.81198,-151.92,1009.7,-999.00,-999.0,yes,no,no,300034012488880,UPTEMPO,PSC-UPTEMPO,Healy,North
2011-07-20T13:59:31Z,1311170371,2011,14,0,201.583,201.583,72.81198,-151.92,1009.3,-999.00,-999.0,yes,no,no,300034012488880,UPTEMPO,PSC-UPTEMPO,Healy,North
2011-07-20T15:00:00Z,1311174000,2011,15,0,201.625,201.625,72.81486,-151.93224,1009.2,-999.00,-999.0,yes,no,no,300034012488880,UPTEMPO,PSC-UPTEMPO,Healy,North
2011-07-20T16:00:28Z,1311177629,2011,16,0,201.667,201.667,72.81486,-151.93224,1008.9,-999.00,-999.0,yes,no,no,300034012488880,UPTEMPO,PSC-UPTEMPO,Healy,North
2011-07-20T16:59:31Z,1311181171,2011,17,0,201.708,201.708,72.81486,-151.93224,1008.5,-999.00,-999.0,yes,no,no,300034012488880,UPTEMPO,PSC-UPTEMPO,Healy,North
2011-07-20T18:00:00Z,1311184800,2011,18,0,201.75,201.75,72.82584,-151.96464,1008.5,-999.00,-999.0,yes,no,no,300034012488880,UPTEMPO,PSC-UPTEMPO,Healy,North
2011-07-20T19:00:28Z,1311188429,2011,19,0,201.792,201.792,72.82584,-151.96464,1008.3,-999.00,-999.0,yes,no,no,300034012488880,UPTEMPO,PSC-UPTEMPO,Healy,North
2011-07-20T19:59:31Z,1311191971,2011,20,0,201.833,201.833,72.82584,-151.96464,1008.5,-999.00,-999.0,yes,no,no,300034012488880,UPTEMPO,PSC-UPTEMPO,Healy,North
2011-07-20T21:00:00Z,1311195600,2011,21,0,201.875,201.875,72.84204,-151.96968,1008.5,-999.00,-999.0,yes,no,no,300034012488880,UPTEMPO,PSC-UPTEMPO,Healy,North
2011-07-20T22:00:28Z,1311199229,2011,22,0,201.917,201.917,72.84204,-151.96968,1008.5,-999.00,-999.0,yes,no,no,300034012488880,UPTEMPO,PSC-UPTEMPO,Healy,North
2011-07-20T22:59:31Z,1311202771,2011,23,0,201.958,201.958,72.84204,-151.96968,1008.4,-999.00,-999.0,yes,no,no,300034012488880,UPTEMPO,PSC-UPTEMPO,Healy,North
2011-07-21T00:00:00Z,1311206400,2011,0,0,202.0,202.0,72.84816,-151.9551,1008.3,-999.00,-999.0,yes,no,no,300034012488880,UPTEMPO,PSC-UPTEMPO,Healy,North
2011-07-21T01:00:28Z,1311210029,2011,1,0,202.042,202.042,72.84816,-151.9551,1008.5,-999.00,-999.0,yes,no,no,300034012488880,UPTEMPO,PSC-UPTEMPO,Healy,North
2011-07-21T01:59:31Z,1311213571,2011,2,0,202.083,202.083,72.84816,-151.9551,1008.3,-999.00,-999.0,yes,no,no,300034012488880,UPTEMPO,PSC-UPTEMPO,Healy,North
2011-07-21T03:00:00Z,1311217200,2011,3,0,202.125,202.125,72.8451,-151.95654,1008.1,-999.00,-999.0,yes,no,no,300034012488880,UPTEMPO,PSC-UPTEMPO,Healy,North
2011-07-21T04:00:28Z,1311220829,2011,4,0,202.167,202.167,72.8451,-151.95654,1007.9,-999.00,-999.0,yes,no,no,300034012488880,UPTEMPO,PSC-UPTEMPO,Healy,North
2011-07-21T04:59:31Z,1311224371,2011,5,0,202.208,202.208,72.8451,-151.95654,1007.7,-999.00,-999.0,yes,no,no,300034012488880,UPTEMPO,PSC-UPTEMPO,Healy,North
2011-07-21T06:00:00Z,1311228000,2011,6,0,202.25,202.25,72.84204,-151.98282,1007.6,-999.00,-999.0,yes,no,no,300034012488880,UPTEMPO,PSC-UPTEMPO,Healy,North
2011-07-21T07:00:28Z,1311231629,2011,7,0,202.292,202.292,72.84204,-151.98282,1007.1,-999.00,-999.0,yes,no,no,300034012488880,UPTEMPO,PSC-UPTEMPO,Healy,North
2011-07-21T07:59:31Z,1311235171,2011,8,0,202.333,202.333,72.84204,-151.98282,1007.2,-999.00,-999.0,yes,no,no,300034012488880,UPTEMPO,PSC-UPTEMPO,Healy,North
2011-07-21T09:00:00Z,1311238800,2011,9,0,202.375,202.375,72.846,-152.00496,1007.4,-999.00,-999.0,yes,no,no,300034012488880,UPTEMPO,PSC-UPTEMPO,Healy,North
2011-07-21T10:00:28Z,1311242429,2011,10,0,202.417,202.417,72.846,-152.00496,1007.3,-999.00,-999.0,yes,no,no,300034012488880,UPTEMPO,PSC-UPTEMPO,Healy,North
2011-07-21T10:59:31Z,1311245971,2011,11,0,202.458,202.458,72.846,-152.00496,1007.4,-999.00,-999.0,yes,no,no,300034012488880,UPTEMPO,PSC-UPTEMPO,Healy,North
2011-07-21T12:00:00Z,1311249600,2011,12,0,202.5,202.5,72.84744,-152.0001,1007.5,-999.00,-999.0,yes,no,no,300034012488880,UPTEMPO,PSC-UPTEMPO,Healy,North
2011-07-21T13:00:28Z,1311253229,2011,13,0,202.542,202.542,72.84744,-152.0001,1007.8,-999.00,-999.0,yes,no,no,300034012488880,UPTEMPO,PSC-UPTEMPO,Healy,North
2011-07-21T13:59:31Z,1311256771,2011,14,0,202.583,202.583,72.84744,-152.0001,1007.7,-999.00,-999.0,yes,no,no,300034012488880,UPTEMPO,PSC-UPTEMPO,Healy,North
2011-07-21T15:00:00Z,1311260400,2011,15,0,202.625,202.625,72.84006,-151.99632,1007.9,-999.00,-999.0,yes,no,no,300034012488880,UPTEMPO,PSC-UPTEMPO,Healy,North
2011-07-21T16:00:28Z,1311264029,2011,16,0,202.667,202.667,72.84006,-151.99632,1007.8,-999.00,-999.0,yes,no,no,300034012488880,UPTEMPO,PSC-UPTEMPO,Healy,North
2011-07-21T16:59:31Z,1311267571,2011,17,0,202.708,202.708,72.84006,-151.99632,1008.0,-999.00,-999.0,yes,no,no,300034012488880,UPTEMPO,PSC-UPTEMPO,Healy,North
2011-07-21T18:00:00Z,1311271200,2011,18,0,202.75,202.75,72.83196,-152.02656,1008.0,-999.00,-999.0,yes,no,no,300034012488880,UPTEMPO,PSC-UPTEMPO,Healy,North
2011-07-21T19:00:28Z,1311274829,2011,19,0,202.792,202.792,72.83196,-152.02656,1008.3,-999.00,-999.0,yes,no,no,300034012488880,UPTEMPO,PSC-UPTEMPO,Healy,North
2011-07-21T19:59:31Z,1311278371,2011,20,0,202.833,202.833,72.83196,-152.02656,1008.4,-999.00,-999.0,yes,no,no,300034012488880,UPTEMPO,PSC-UPTEMPO,Healy,North
2011-07-21T21:00:00Z,1311282000,2011,21,0,202.875,202.875,72.83286,-152.05662,1008.7,-999.00,-999.0,yes,no,no,300034012488880,UPTEMPO,PSC-UPTEMPO,Healy,North
2011-07-21T22:00:28Z,1311285629,2011,22,0,202.917,202.917,72.83286,-152.05662,1008.7,-999.00,-999.0,yes,no,no,300034012488880,UPTEMPO,PSC-UPTEMPO,Healy,North
2011-07-21T22:59:31Z,1311289171,2011,23,0,202.958,202.958,72.83286,-152.05662,1008.9,-999.00,-999.0,yes,no,no,300034012488880,UPTEMPO,PSC-UPTEMPO,Healy,North
2011-07-22T00:00:00Z,1311292800,2011,0,0,203.0,203.0,72.8325,-152.06058,1008.8,-999.00,-999.0,yes,no,no,300034012488880,UPTEMPO,PSC-UPTEMPO,Healy,North
2011-07-22T01:00:28Z,1311296429,2011,1,0,203.042,203.042,72.8325,-152.06058,1008.9,-999.00,-999.0,yes,no,no,300034012488880,UPTEMPO,PSC-UPTEMPO,Healy,North
2011-07-22T01:59:31Z,1311299971,2011,2,0,203.083,203.083,72.8325,-152.06058,1008.8,-999.00,-999.0,yes,no,no,300034012488880,UPTEMPO,PSC-UPTEMPO,Healy,North
2011-07-22T03:00:00Z,1311303600,2011,3,0,203.125,203.125,72.8271,-152.06778,1008.9,-999.00,-999.0,yes,no,no,300034012488880,UPTEMPO,PSC-UPTEMPO,Healy,North
2011-07-22T04:00:28Z,1311307229,2011,4,0,203.167,203.167,72.8271,-152.06778,1008.8,-999.00,-999.0,yes,no,no,300034012488880,UPTEMPO,PSC-UPTEMPO,Healy,North
2011-07-22T04:59:31Z,1311310771,2011,5,0,203.208,203.208,72.8271,-152.06778,1008.6,-999.00,-999.0,yes,no,no,300034012488880,UPTEMPO,PSC-UPTEMPO,Healy,North
2011-07-22T06:00:00Z,1311314400,2011,6,0,203.25,203.25,72.82062,-152.10072,1008.8,-999.00,-999.0,yes,no,no,300034012488880,UPTEMPO,PSC-UPTEMPO,Healy,North
2011-07-22T07:00:28Z,1311318029,2011,7,0,203.292,203.292,72.82062,-152.10072,1008.7,-999.00,-999.0,yes,no,no,300034012488880,UPTEMPO,PSC-UPTEMPO,Healy,North
2011-07-22T07:59:31Z,1311321571,2011,8,0,203.333,203.333,72.82062,-152.10072,1008.8,-999.00,-999.0,yes,no,no,300034012488880,UPTEMPO,PSC-UPTEMPO,Healy,North
2011-07-22T09:00:00Z,1311325200,2011,9,0,203.375,203.375,72.82386,-152.13744,1008.7,-999.00,-999.0,yes,no,no,300034012488880,UPTEMPO,PSC-UPTEMPO,Healy,North
2011-07-22T10:00:28Z,1311328829,2011,10,0,203.417,203.417,72.82386,-152.13744,1008.8,-999.00,-999.0,yes,no,no,300034012488880,UPTEMPO,PSC-UPTEMPO,Healy,North
2011-07-22T10:59:31Z,1311332371,2011,11,0,203.458,203.458,72.82386,-152.13744,1008.6,-999.00,-999.0,yes,no,no,300034012488880,UPTEMPO,PSC-UPTEMPO,Healy,North
2011-07-22T12:00:00Z,1311336000,2011,12,0,203.5,203.5,72.83052,-152.15004,1008.7,-999.00,-999.0,yes,no,no,300034012488880,UPTEMPO,PSC-UPTEMPO,Healy,North
2011-07-22T13:00:28Z,1311339629,2011,13,0,203.542,203.542,72.83052,-152.15004,1008.8,-999.00,-999.0,yes,no,no,300034012488880,UPTEMPO,PSC-UPTEMPO,Healy,North
2011-07-22T13:59:31Z,1311343171,2011,14,0,203.583,203.583,72.83052,-152.15004,1008.6,-999.00,-999.0,yes,no,no,300034012488880,UPTEMPO,PSC-UPTEMPO,Healy,North
2011-07-22T15:00:00Z,1311346800,2011,15,0,203.625,203.625,72.8298,-152.1513,1008.7,-999.00,-999.0,yes,no,no,300034012488880,UPTEMPO,PSC-UPTEMPO,Healy,North
2011-07-22T16:00:28Z,1311350429,2011,16,0,203.667,203.667,72.8298,-152.1513,1008.8,-999.00,-999.0,yes,no,no,300034012488880,UPTEMPO,PSC-UPTEMPO,Healy,North
2011-07-22T16:59:31Z,1311353971,2011,17,0,203.708,203.708,72.8298,-152.1513,1008.9,-999.00,-999.0,yes,no,no,300034012488880,UPTEMPO,PSC-UPTEMPO,Healy,North
2011-07-22T18:00:00Z,1311357600,2011,18,0,203.75,203.75,72.82224,-152.17416,1008.7,-999.00,-999.0,yes,no,no,300034012488880,UPTEMPO,PSC-UPTEMPO,Healy,North
2011-07-22T19:00:28Z,1311361229,2011,19,0,203.792,203.792,72.82224,-152.17416,1008.9,-999.00,-999.0,yes,no,no,300034012488880,UPTEMPO,PSC-UPTEMPO,Healy,North
2011-07-22T19:59:31Z,1311364771,2011,20,0,203.833,203.833,72.82224,-152.17416,1008.9,-999.00,-999.0,yes,no,no,300034012488880,UPTEMPO,PSC-UPTEMPO,Healy,North
2011-07-22T21:00:00Z,1311368400,2011,21,0,203.875,203.875,72.819,-152.2206,1008.9,-999.00,-999.0,yes,no,no,300034012488880,UPTEMPO,PSC-UPTEMPO,Healy,North
2011-07-22T22:00:28Z,1311372029,2011,22,0,203.917,203.917,72.819,-152.2206,1008.9,-999.00,-999.0,yes,no,no,300034012488880,UPTEMPO,PSC-UPTEMPO,Healy,North
2011-07-22T22:59:31Z,1311375571,2011,23,0,203.958,203.958,72.819,-152.2206,1008.9,-999.00,-999.0,yes,no,no,300034012488880,UPTEMPO,PSC-UPTEMPO,Healy,North
2011-07-23T00:00:00Z,1311379200,2011,0,0,204.0,204.0,72.82386,-152.24958,1008.8,-999.00,-999.0,yes,no,no,300034012488880,UPTEMPO,PSC-UPTEMPO,Healy,North
2011-07-23T01:00:28Z,1311382829,2011,1,0,204.042,204.042,72.82386,-152.24958,1008.8,-999.00,-999.0,yes,no,no,300034012488880,UPTEMPO,PSC-UPTEMPO,Healy,North
2011-07-23T01:59:31Z,1311386371,2011,2,0,204.083,204.083,72.82386,-152.24958,1008.8,-999.00,-999.0,yes,no,no,300034012488880,UPTEMPO,PSC-UPTEMPO,Healy,North
2011-07-23T03:00:00Z,1311390000,2011,3,0,204.125,204.125,72.82782,-152.25336,1008.7,-999.00,-999.0,yes,no,no,300034012488880,UPTEMPO,PSC-UPTEMPO,Healy,North
2011-07-23T04:00:28Z,1311393629,2011,4,0,204.167,204.167,72.82782,-152.25336,1008.6,-999.00,-999.0,yes,no,no,300034012488880,UPTEMPO,PSC-UPTEMPO,Healy,North
2011-07-23T04:59:31Z,1311397171,2011,5,0,204.208,204.208,72.82782,-152.25336,1008.6,-999.00,-999.0,yes,no,no,300034012488880,UPTEMPO,PSC-UPTEMPO,Healy,North
2011-07-23T06:00:00Z,1311400800,2011,6,0,204.25,204.25,72.82332,-152.26542,1008.6,-999.00,-999.0,yes,no,no,300034012488880,UPTEMPO,PSC-UPTEMPO,Healy,North
2011-07-23T07:00:28Z,1311404429,2011,7,0,204.292,204.292,72.82332,-152.26542,1008.5,-999.00,-999.0,yes,no,no,300034012488880,UPTEMPO,PSC-UPTEMPO,Healy,North
2011-07-23T07:59:31Z,1311407971,2011,8,0,204.333,204.333,72.82332,-152.26542,1008.4,-999.00,-999.0,yes,no,no,300034012488880,UPTEMPO,PSC-UPTEMPO,Healy,North
2011-07-23T09:00:00Z,1311411600,2011,9,0,204.375,204.375,72.81918,-152.30538,1008.4,-999.00,-999.0,yes,no,no,300034012488880,UPTEMPO,PSC-UPTEMPO,Healy,North
2011-07-23T10:00:28Z,1311415229,2011,10,0,204.417,204.417,72.81918,-152.30538,1008.5,-999.00,-999.0,yes,no,no,300034012488880,UPTEMPO,PSC-UPTEMPO,Healy,North